Time,TemperatureF,DewpointF,PressureIn,WindDirection,WindDirectionDegrees,WindSpeedMPH,WindSpeedGustMPH,Humidity,HourlyPrecipIn,Conditions,Clouds,dailyrainin,SolarRadiationWatts/m^2,SoftwareType,DateUTC
2013-01-09 00:02:00,48.0,42.1,30.09,SSW,207,0.0,0.0,80,0.00,,,0.00,0,Wunderground v.1.15,2013-01-09 08:02:00,
2013-01-09 00:12:00,47.8,41.6,30.09,SSW,207,0.0,0.0,79,0.00,,,0.00,0,Wunderground v.1.15,2013-01-09 08:12:00,
2013-01-09 00:22:00,47.6,41.4,30.09,SSW,207,0.0,0.0,79,0.00,,,0.00,0,Wunderground v.1.15,2013-01-09 08:22:00,
2013-01-09 00:27:00,47.5,41.3,30.09,SSW,207,0.0,3.0,79,0.00,,,0.00,0,Wunderground v.1.15,2013-01-09 08:27:00,
2013-01-09 00:37:00,47.8,41.3,30.09,SSW,207,1.0,1.0,78,0.00,,,0.00,0,Wunderground v.1.15,2013-01-09 08:37:00,
2013-01-09 00:47:00,47.6,41.1,30.09,SSW,207,0.0,0.0,78,0.00,,,0.00,0,Wunderground v.1.15,2013-01-09 08:47:00,
2013-01-09 00:57:00,47.5,41.0,30.09,SSW,207,0.0,0.0,78,0.00,,,0.00,0,Wunderground v.1.15,2013-01-09 08:57:00,
2013-01-09 01:02:00,47.4,40.9,30.09,SSW,207,0.0,0.0,78,0.00,,,0.00,0,Wunderground v.1.15,2013-01-09 09:02:00,
2013-01-09 01:12:00,47.4,40.9,30.09,SSW,207,0.0,0.0,78,0.00,,,0.00,0,Wunderground v.1.15,2013-01-09 09:12:00,
2013-01-09 01:22:00,47.4,40.9,30.09,SSW,207,0.0,0.0,78,0.00,,,0.00,0,Wunderground v.1.15,2013-01-09 09:22:00,
2013-01-09 01:27:00,47.4,40.6,30.09,SSW,207,0.0,0.0,77,0.00,,,0.00,0,Wunderground v.1.15,2013-01-09 09:27:00,
2013-01-09 01:37:00,47.0,40.5,30.09,SSW,207,0.0,0.0,78,0.00,,,0.00,0,Wunderground v.1.15,2013-01-09 09:37:00,
2013-01-09 01:47:00,46.8,40.3,30.09,SSW,207,0.0,0.0,78,0.00,,,0.00,0,Wunderground v.1.15,2013-01-09 09:47:00,
2013-01-09 01:57:00,46.6,40.1,30.09,SSW,207,0.0,0.0,78,0.00,,,0.00,0,Wunderground v.1.15,2013-01-09 09:57:00,
2013-01-09 02:07:00,46.6,40.1,30.09,SSW,207,0.0,0.0,78,0.00,,,0.00,0,Wunderground v.1.15,2013-01-09 10:07:00,
2013-01-09 02:12:00,46.5,40.0,30.09,SSW,207,0.0,0.0,78,0.00,,,0.00,0,Wunderground v.1.15,2013-01-09 10:12:00,
2013-01-09 02:22:00,46.5,40.0,30.09,SSW,207,0.0,0.0,78,0.00,,,0.00,0,Wunderground v.1.15,2013-01-09 10:22:00,
2013-01-09 02:32:00,46.5,40.0,30.09,SSW,207,0.0,0.0,78,0.00,,,0.00,0,Wunderground v.1.15,2013-01-09 10:32:00,
2013-01-09 02:42:00,46.3,39.5,30.09,SSW,207,0.0,0.0,77,0.00,,,0.00,0,Wunderground v.1.15,2013-01-09 10:42:00,
2013-01-09 02:52:00,46.3,39.5,30.09,SSW,207,0.0,0.0,77,0.00,,,0.00,0,Wunderground v.1.15,2013-01-09 10:52:00,
2013-01-09 03:02:00,46.5,39.7,30.09,SSW,207,0.0,0.0,77,0.00,,,0.00,0,Wunderground v.1.15,2013-01-09 11:02:00,
2013-01-09 03:07:00,46.5,39.3,30.09,SSW,207,0.0,0.0,76,0.00,,,0.00,0,Wunderground v.1.15,2013-01-09 11:07:00,
2013-01-09 03:17:00,46.4,39.2,30.08,SSW,207,0.0,0.0,76,0.00,,,0.00,0,Wunderground v.1.15,2013-01-09 11:17:00,
2013-01-09 03:27:00,46.2,39.1,30.08,SSW,207,0.0,0.0,76,0.00,,,0.00,0,Wunderground v.1.15,2013-01-09 11:27:00,
2013-01-09 03:32:00,46.1,39.0,30.08,SSW,207,0.0,0.0,76,0.00,,,0.00,0,Wunderground v.1.15,2013-01-09 11:32:00,
2013-01-09 03:42:00,46.0,38.9,30.08,SSW,207,0.0,0.0,76,0.00,,,0.00,0,Wunderground v.1.15,2013-01-09 11:42:00,
2013-01-09 03:52:00,46.1,39.0,30.08,SSW,207,0.0,0.0,76,0.00,,,0.00,0,Wunderground v.1.15,2013-01-09 11:52:00,
2013-01-09 04:02:00,46.2,39.1,30.08,SSW,207,0.0,0.0,76,0.00,,,0.00,0,Wunderground v.1.15,2013-01-09 12:02:00,
2013-01-09 04:07:00,46.2,39.1,30.07,SSW,207,0.0,0.0,76,0.00,,,0.00,0,Wunderground v.1.15,2013-01-09 12:07:00,
2013-01-09 04:17:00,46.3,39.1,30.07,SSW,207,0.0,0.0,76,0.00,,,0.00,0,Wunderground v.1.15,2013-01-09 12:17:00,
2013-01-09 04:22:00,46.3,39.1,30.07,SSW,207,0.0,0.0,76,0.00,,,0.00,0,Wunderground v.1.15,2013-01-09 12:22:00,
2013-01-09 04:32:00,46.4,39.2,30.07,SSW,207,0.0,0.0,76,0.00,,,0.00,0,Wunderground v.1.15,2013-01-09 12:32:00,
2013-01-09 04:42:00,46.4,39.2,30.07,SSW,207,0.0,0.0,76,0.00,,,0.00,0,Wunderground v.1.15,2013-01-09 12:42:00,
2013-01-09 04:47:00,46.4,39.2,30.07,SSW,207,0.0,0.0,76,0.00,,,0.00,0,Wunderground v.1.15,2013-01-09 12:47:00,
2013-01-09 04:57:00,46.4,38.9,30.07,SSW,207,0.0,0.0,75,0.00,,,0.00,0,Wunderground v.1.15,2013-01-09 12:57:00,
2013-01-09 05:02:00,46.4,38.9,30.07,SSW,207,0.0,0.0,75,0.00,,,0.00,0,Wunderground v.1.15,2013-01-09 13:02:00,
2013-01-09 05:12:00,46.2,38.7,30.08,SSW,207,0.0,0.0,75,0.00,,,0.00,0,Wunderground v.1.15,2013-01-09 13:12:00,
2013-01-09 05:17:00,46.0,38.5,30.08,SSW,207,0.0,0.0,75,0.00,,,0.00,0,Wunderground v.1.15,2013-01-09 13:17:00,
2013-01-09 05:27:00,45.9,38.8,30.08,SSW,207,0.0,0.0,76,0.00,,,0.00,0,Wunderground v.1.15,2013-01-09 13:27:00,
2013-01-09 05:37:00,45.8,38.7,30.09,SSW,207,0.0,0.0,76,0.00,,,0.00,0,Wunderground v.1.15,2013-01-09 13:37:00,
2013-01-09 05:42:00,46.0,38.9,30.09,SSW,207,0.0,0.0,76,0.00,,,0.00,0,Wunderground v.1.15,2013-01-09 13:42:00,
2013-01-09 05:52:00,46.1,39.3,30.09,SSW,207,0.0,0.0,77,0.00,,,0.00,0,Wunderground v.1.15,2013-01-09 13:52:00,
2013-01-09 05:57:00,46.4,39.6,30.09,SSW,207,0.0,0.0,77,0.00,,,0.00,0,Wunderground v.1.15,2013-01-09 13:57:00,
2013-01-09 06:07:00,46.2,39.4,30.10,SSW,207,0.0,0.0,77,0.00,,,0.00,0,Wunderground v.1.15,2013-01-09 14:07:00,
2013-01-09 06:17:00,45.9,39.1,30.10,SSW,207,0.0,0.0,77,0.00,,,0.00,0,Wunderground v.1.15,2013-01-09 14:17:00,
2013-01-09 06:22:00,45.9,39.1,30.10,SSW,207,0.0,0.0,77,0.00,,,0.00,0,Wunderground v.1.15,2013-01-09 14:22:00,
2013-01-09 06:32:00,45.6,39.1,30.11,SSW,207,0.0,0.0,78,0.00,,,0.00,0,Wunderground v.1.15,2013-01-09 14:32:00,
2013-01-09 06:42:00,45.4,38.9,30.11,SSW,207,0.0,0.0,78,0.00,,,0.00,0,Wunderground v.1.15,2013-01-09 14:42:00,
2013-01-09 06:47:00,45.4,38.9,30.10,SSW,207,0.0,0.0,78,0.00,,,0.00,0,Wunderground v.1.15,2013-01-09 14:47:00,
2013-01-09 06:57:00,45.3,38.8,30.10,SSW,207,0.0,0.0,78,0.00,,,0.00,0,Wunderground v.1.15,2013-01-09 14:57:00,
2013-01-09 07:07:00,45.2,38.7,30.10,SSW,207,0.0,0.0,78,0.00,,,0.00,11,Wunderground v.1.15,2013-01-09 15:07:00,
2013-01-09 07:12:00,45.2,38.7,30.10,SSW,207,0.0,0.0,78,0.00,,,0.00,16,Wunderground v.1.15,2013-01-09 15:12:00,
2013-01-09 07:22:00,45.5,39.0,30.11,SSW,207,0.0,0.0,78,0.00,,,0.00,26,Wunderground v.1.15,2013-01-09 15:22:00,
2013-01-09 07:32:00,45.9,39.4,30.11,SSW,207,0.0,0.0,78,0.00,,,0.00,37,Wunderground v.1.15,2013-01-09 15:32:00,
2013-01-09 07:37:00,46.1,39.6,30.11,SSW,207,0.0,0.0,78,0.00,,,0.00,44,Wunderground v.1.15,2013-01-09 15:37:00,
2013-01-09 07:47:00,46.5,40.0,30.12,SSW,207,0.0,0.0,78,0.00,,,0.00,53,Wunderground v.1.15,2013-01-09 15:47:00,
2013-01-09 07:52:00,46.8,40.3,30.12,SSW,207,0.0,0.0,78,0.00,,,0.00,56,Wunderground v.1.15,2013-01-09 15:52:00,
2013-01-09 08:02:00,47.6,40.7,30.12,SSW,207,0.0,0.0,77,0.00,,,0.00,79,Wunderground v.1.15,2013-01-09 16:02:00,
2013-01-09 08:12:00,48.8,41.9,30.12,SSW,207,0.0,0.0,77,0.00,,,0.00,141,Wunderground v.1.15,2013-01-09 16:12:00,
2013-01-09 08:17:00,49.8,42.9,30.12,SSW,207,0.0,0.0,77,0.00,,,0.00,165,Wunderground v.1.15,2013-01-09 16:17:00,
2013-01-09 08:27:00,52.0,44.3,30.12,SSW,207,0.0,0.0,75,0.00,,,0.00,193,Wunderground v.1.15,2013-01-09 16:27:00,
2013-01-09 08:32:00,54.2,45.0,30.12,SSW,207,0.0,0.0,71,0.00,,,0.00,195,Wunderground v.1.15,2013-01-09 16:32:00,
2013-01-09 08:42:00,56.6,44.6,30.12,SSW,207,0.0,0.0,64,0.00,,,0.00,239,Wunderground v.1.15,2013-01-09 16:42:00,
2013-01-09 08:52:00,56.8,44.7,30.12,SSW,207,0.0,0.0,64,0.00,,,0.00,223,Wunderground v.1.15,2013-01-09 16:52:00,
2013-01-09 08:57:00,57.1,45.0,30.12,SSW,207,0.0,0.0,64,0.00,,,0.00,230,Wunderground v.1.15,2013-01-09 16:57:00,
2013-01-09 09:07:00,58.0,46.7,30.12,SSW,207,0.0,0.0,66,0.00,,,0.00,276,Wunderground v.1.15,2013-01-09 17:07:00,
2013-01-09 09:12:00,59.0,48.1,30.12,SSW,207,0.0,0.0,67,0.00,,,0.00,327,Wunderground v.1.15,2013-01-09 17:12:00,
2013-01-09 09:22:00,60.2,49.2,30.12,SSW,207,0.0,0.0,67,0.00,,,0.00,345,Wunderground v.1.15,2013-01-09 17:22:00,
2013-01-09 09:32:00,60.9,48.6,30.13,SSW,207,0.0,0.0,64,0.00,,,0.00,313,Wunderground v.1.15,2013-01-09 17:32:00,
2013-01-09 09:37:00,61.3,49.4,30.13,SSW,207,0.0,0.0,65,0.00,,,0.00,272,Wunderground v.1.15,2013-01-09 17:37:00,
2013-01-09 09:47:00,62.2,49.9,30.12,SSW,207,0.0,0.0,64,0.00,,,0.00,322,Wunderground v.1.15,2013-01-09 17:47:00,
2013-01-09 09:57:00,61.9,49.2,30.12,SSW,207,0.0,0.0,63,0.00,,,0.00,399,Wunderground v.1.15,2013-01-09 17:57:00,
2013-01-09 10:07:00,61.9,49.2,30.12,SSW,207,1.0,1.0,63,0.00,,,0.00,431,Wunderground v.1.15,2013-01-09 18:07:00,
2013-01-09 10:12:00,62.2,48.6,30.12,SSW,207,0.0,0.0,61,0.00,,,0.00,378,Wunderground v.1.15,2013-01-09 18:12:00,
2013-01-09 10:22:00,63.9,49.3,30.12,SSW,207,0.0,0.0,59,0.00,,,0.00,415,Wunderground v.1.15,2013-01-09 18:22:00,
2013-01-09 10:27:00,64.2,49.6,30.11,SSW,207,0.0,0.0,59,0.00,,,0.00,436,Wunderground v.1.15,2013-01-09 18:27:00,
2013-01-09 10:37:00,63.5,48.5,30.11,SSW,207,0.0,0.0,58,0.00,,,0.00,432,Wunderground v.1.15,2013-01-09 18:37:00,
2013-01-09 10:42:00,64.0,48.5,30.11,SSW,207,0.0,0.0,57,0.00,,,0.00,403,Wunderground v.1.15,2013-01-09 18:42:00,
2013-01-09 10:47:00,64.3,48.3,30.10,SSW,207,0.0,0.0,56,0.00,,,0.00,459,Wunderground v.1.15,2013-01-09 18:47:00,
2013-01-09 10:52:00,64.4,48.4,30.10,SSW,207,0.0,0.0,56,0.00,,,0.00,452,Wunderground v.1.15,2013-01-09 18:52:00,
2013-01-09 11:02:00,65.7,49.1,30.10,SSW,207,0.0,0.0,55,0.00,,,0.00,490,Wunderground v.1.15,2013-01-09 19:02:00,
2013-01-09 11:07:00,66.1,49.0,30.10,SSW,207,0.0,1.0,54,0.00,,,0.00,513,Wunderground v.1.15,2013-01-09 19:07:00,
2013-01-09 11:17:00,66.1,48.5,30.10,SSW,207,1.0,2.0,53,0.00,,,0.00,473,Wunderground v.1.15,2013-01-09 19:17:00,
2013-01-09 11:22:00,65.1,48.0,30.09,SSW,207,3.0,3.0,54,0.00,,,0.00,434,Wunderground v.1.15,2013-01-09 19:22:00,
2013-01-09 11:27:00,66.0,48.9,30.09,SSW,207,3.0,3.0,54,0.00,,,0.00,487,Wunderground v.1.15,2013-01-09 19:27:00,
2013-01-09 11:37:00,66.1,47.4,30.09,SSW,207,2.0,4.0,51,0.00,,,0.00,466,Wunderground v.1.15,2013-01-09 19:37:00,
2013-01-09 11:47:00,67.8,47.9,30.09,SSW,207,1.0,4.0,49,0.00,,,0.00,541,Wunderground v.1.15,2013-01-09 19:47:00,
2013-01-09 11:52:00,67.2,48.5,30.08,SSW,208,2.0,2.0,51,0.00,,,0.00,425,Wunderground v.1.15,2013-01-09 19:52:00,
2013-01-09 12:02:00,68.0,47.6,30.08,SSW,204,1.0,2.0,48,0.00,,,0.00,424,Wunderground v.1.15,2013-01-09 20:02:00,
2013-01-09 12:07:00,68.2,47.8,30.08,SSW,204,2.0,2.0,48,0.00,,,0.00,425,Wunderground v.1.15,2013-01-09 20:07:00,
2013-01-09 12:17:00,68.6,47.0,30.07,SSW,206,1.0,3.0,46,0.00,,,0.00,464,Wunderground v.1.15,2013-01-09 20:17:00,
2013-01-09 12:27:00,68.5,48.6,30.06,SSW,206,1.0,2.0,49,0.00,,,0.00,422,Wunderground v.1.15,2013-01-09 20:27:00,
2013-01-09 12:32:00,68.4,47.9,30.06,SSW,206,0.0,0.0,48,0.00,,,0.00,367,Wunderground v.1.15,2013-01-09 20:32:00,
2013-01-09 12:42:00,68.9,47.8,30.05,SSW,205,1.0,1.0,47,0.00,,,0.00,425,Wunderground v.1.15,2013-01-09 20:42:00,
2013-01-09 12:47:00,68.7,48.2,30.05,SSW,205,1.0,1.0,48,0.00,,,0.00,436,Wunderground v.1.15,2013-01-09 20:47:00,
2013-01-09 12:57:00,69.4,48.3,30.05,SSW,205,1.0,3.0,47,0.00,,,0.00,429,Wunderground v.1.15,2013-01-09 20:57:00,
2013-01-09 13:12:00,68.2,47.8,30.04,SSW,204,0.0,0.0,48,0.00,,,0.00,482,Wunderground v.1.15,2013-01-09 21:12:00,
2013-01-09 13:17:00,68.6,47.6,30.04,SSW,204,1.0,3.0,47,0.00,,,0.00,476,Wunderground v.1.15,2013-01-09 21:17:00,
2013-01-09 13:22:00,69.2,48.7,30.04,SSW,205,2.0,2.0,48,0.00,,,0.00,473,Wunderground v.1.15,2013-01-09 21:22:00,
2013-01-09 13:32:00,70.3,49.7,30.04,SSW,205,1.0,1.0,48,0.00,,,0.00,403,Wunderground v.1.15,2013-01-09 21:32:00,
2013-01-09 13:42:00,69.2,49.2,30.03,SSW,207,2.0,2.0,49,0.00,,,0.00,304,Wunderground v.1.15,2013-01-09 21:42:00,
2013-01-09 13:47:00,69.3,48.8,30.04,SSW,207,2.0,2.0,48,0.00,,,0.00,322,Wunderground v.1.15,2013-01-09 21:47:00,
2013-01-09 13:57:00,69.2,49.2,30.04,SSW,207,2.0,3.0,49,0.00,,,0.00,311,Wunderground v.1.15,2013-01-09 21:57:00,
2013-01-09 14:07:00,68.8,48.9,30.04,SSW,207,2.0,4.0,49,0.00,,,0.00,257,Wunderground v.1.15,2013-01-09 22:07:00,
2013-01-09 14:12:00,68.7,48.8,30.04,SSW,207,2.0,2.0,49,0.00,,,0.00,283,Wunderground v.1.15,2013-01-09 22:12:00,
2013-01-09 14:22:00,69.2,48.7,30.03,SSW,207,1.0,3.0,48,0.00,,,0.00,267,Wunderground v.1.15,2013-01-09 22:22:00,
2013-01-09 14:32:00,68.3,48.9,30.04,SSW,210,2.0,4.0,50,0.00,,,0.00,272,Wunderground v.1.15,2013-01-09 22:32:00,
2013-01-09 14:37:00,67.8,49.0,30.03,SSW,212,4.0,4.0,51,0.00,,,0.00,241,Wunderground v.1.15,2013-01-09 22:37:00,
2013-01-09 14:47:00,67.8,49.5,30.03,SSW,213,2.0,7.0,52,0.00,,,0.00,306,Wunderground v.1.15,2013-01-09 22:47:00,
2013-01-09 14:52:00,67.8,49.5,30.03,SSW,212,3.0,3.0,52,0.00,,,0.00,279,Wunderground v.1.15,2013-01-09 22:52:00,
2013-01-09 15:02:00,67.7,49.4,30.03,SSW,213,3.0,3.0,52,0.00,,,0.00,227,Wunderground v.1.15,2013-01-09 23:02:00,
2013-01-09 15:12:00,67.1,50.4,30.03,SW,215,3.0,4.0,55,0.00,,,0.00,174,Wunderground v.1.15,2013-01-09 23:12:00,
2013-01-09 15:17:00,66.9,50.2,30.03,SW,229,3.0,4.0,55,0.00,,,0.00,167,Wunderground v.1.15,2013-01-09 23:17:00,
2013-01-09 15:27:00,65.4,49.3,30.03,SW,220,4.0,6.0,56,0.00,,,0.00,132,Wunderground v.1.15,2013-01-09 23:27:00,
2013-01-09 15:32:00,65.0,49.4,30.03,SSW,199,4.0,5.0,57,0.00,,,0.00,128,Wunderground v.1.15,2013-01-09 23:32:00,
2013-01-09 15:42:00,64.5,48.9,30.03,SSW,200,4.0,6.0,57,0.00,,,0.00,116,Wunderground v.1.15,2013-01-09 23:42:00,
2013-01-09 15:52:00,63.9,49.3,30.03,SSW,193,4.0,4.0,59,0.00,,,0.00,116,Wunderground v.1.15,2013-01-09 23:52:00,
2013-01-09 16:02:00,63.2,49.5,30.03,South,190,3.0,6.0,61,0.00,,,0.00,90,Wunderground v.1.15,2013-01-10 00:02:00,
2013-01-09 16:07:00,63.0,48.9,30.03,South,190,3.0,6.0,60,0.00,,,0.00,67,Wunderground v.1.15,2013-01-10 00:07:00,
2013-01-09 16:17:00,62.5,48.9,30.04,SSW,193,2.0,3.0,61,0.00,,,0.00,46,Wunderground v.1.15,2013-01-10 00:17:00,
2013-01-09 16:22:00,62.0,48.0,30.03,SSW,192,2.0,3.0,60,0.00,,,0.00,40,Wunderground v.1.15,2013-01-10 00:22:00,
2013-01-09 16:32:00,61.1,46.7,30.03,South,186,3.0,6.0,59,0.00,,,0.00,33,Wunderground v.1.15,2013-01-10 00:32:00,
2013-01-09 16:42:00,60.3,46.4,30.03,SSW,194,4.0,4.0,60,0.00,,,0.00,18,Wunderground v.1.15,2013-01-10 00:42:00,
2013-01-09 16:52:00,59.8,47.2,30.03,SSW,196,2.0,5.0,63,0.00,,,0.00,11,Wunderground v.1.15,2013-01-10 00:52:00,
2013-01-09 17:02:00,59.3,47.5,30.03,SSW,196,2.0,2.0,65,0.00,,,0.00,0,Wunderground v.1.15,2013-01-10 01:02:00,
2013-01-09 17:12:00,59.0,48.4,30.03,SSW,196,1.0,3.0,68,0.00,,,0.00,0,Wunderground v.1.15,2013-01-10 01:12:00,
2013-01-09 17:17:00,58.7,49.3,30.02,SSW,196,1.0,3.0,71,0.00,,,0.00,0,Wunderground v.1.15,2013-01-10 01:17:00,
2013-01-09 17:27:00,57.8,49.6,30.03,SSW,195,1.0,2.0,74,0.00,,,0.00,0,Wunderground v.1.15,2013-01-10 01:27:00,
2013-01-09 17:37:00,57.1,50.0,30.03,SSW,196,1.0,1.0,77,0.00,,,0.00,0,Wunderground v.1.15,2013-01-10 01:37:00,
2013-01-09 17:42:00,56.8,50.0,30.03,South,190,2.0,3.0,78,0.00,,,0.00,0,Wunderground v.1.15,2013-01-10 01:42:00,
2013-01-09 17:52:00,56.2,50.1,30.04,SSW,198,2.0,3.0,80,0.00,,,0.00,0,Wunderground v.1.15,2013-01-10 01:52:00,
2013-01-09 18:02:00,55.7,50.0,30.04,SSW,198,1.0,1.0,81,0.00,,,0.00,0,Wunderground v.1.15,2013-01-10 02:02:00,
2013-01-09 18:07:00,55.5,50.1,30.04,SSW,198,0.0,1.0,82,0.00,,,0.00,0,Wunderground v.1.15,2013-01-10 02:07:00,
2013-01-09 18:17:00,55.2,49.8,30.04,SSW,198,1.0,2.0,82,0.00,,,0.00,0,Wunderground v.1.15,2013-01-10 02:17:00,
2013-01-09 18:27:00,55.1,50.0,30.04,SSW,197,0.0,1.0,83,0.00,,,0.00,0,Wunderground v.1.15,2013-01-10 02:27:00,
2013-01-09 18:32:00,55.1,50.0,30.04,SSW,192,1.0,1.0,83,0.00,,,0.00,0,Wunderground v.1.15,2013-01-10 02:32:00,
2013-01-09 18:42:00,54.9,49.8,30.04,SSW,192,2.0,4.0,83,0.00,,,0.00,0,Wunderground v.1.15,2013-01-10 02:42:00,
2013-01-09 18:47:00,54.7,49.6,30.04,South,190,2.0,4.0,83,0.00,,,0.00,0,Wunderground v.1.15,2013-01-10 02:47:00,
2013-01-09 18:57:00,54.7,50.0,30.05,SSW,194,1.0,2.0,84,0.00,,,0.00,0,Wunderground v.1.15,2013-01-10 02:57:00,
2013-01-09 19:02:00,54.7,50.0,30.04,SSW,194,1.0,2.0,84,0.00,,,0.00,0,Wunderground v.1.15,2013-01-10 03:02:00,
2013-01-09 19:12:00,54.8,50.1,30.05,SSW,194,1.0,2.0,84,0.00,,,0.00,0,Wunderground v.1.15,2013-01-10 03:12:00,
2013-01-09 19:22:00,54.6,49.9,30.05,SSW,192,2.0,3.0,84,0.00,,,0.00,0,Wunderground v.1.15,2013-01-10 03:22:00,
2013-01-09 19:27:00,54.5,49.8,30.05,South,189,2.0,3.0,84,0.00,,,0.00,0,Wunderground v.1.15,2013-01-10 03:27:00,
2013-01-09 19:37:00,54.4,49.7,30.05,South,188,2.0,3.0,84,0.00,,,0.00,0,Wunderground v.1.15,2013-01-10 03:37:00,
2013-01-09 19:47:00,54.2,49.5,30.05,South,188,1.0,2.0,84,0.00,,,0.00,0,Wunderground v.1.15,2013-01-10 03:47:00,
2013-01-09 19:52:00,54.2,49.5,30.05,South,188,0.0,0.0,84,0.00,,,0.00,0,Wunderground v.1.15,2013-01-10 03:52:00,
2013-01-09 20:02:00,54.0,49.3,30.04,South,188,1.0,1.0,84,0.00,,,0.00,0,Wunderground v.1.15,2013-01-10 04:02:00,
2013-01-09 20:07:00,53.9,49.2,30.04,South,187,1.0,1.0,84,0.00,,,0.00,0,Wunderground v.1.15,2013-01-10 04:07:00,
2013-01-09 20:17:00,53.6,48.6,30.04,South,187,1.0,1.0,83,0.00,,,0.00,0,Wunderground v.1.15,2013-01-10 04:17:00,
2013-01-09 20:27:00,53.6,48.6,30.05,South,187,0.0,1.0,83,0.00,,,0.00,0,Wunderground v.1.15,2013-01-10 04:27:00,
2013-01-09 20:32:00,53.5,48.5,30.05,South,187,0.0,0.0,83,0.00,,,0.00,0,Wunderground v.1.15,2013-01-10 04:32:00,
2013-01-09 20:42:00,53.3,48.3,30.04,South,185,2.0,2.0,83,0.00,,,0.00,0,Wunderground v.1.15,2013-01-10 04:42:00,
2013-01-09 20:52:00,53.3,48.3,30.03,South,184,0.0,0.0,83,0.00,,,0.00,0,Wunderground v.1.15,2013-01-10 04:52:00,
2013-01-09 20:57:00,53.3,48.3,30.03,South,184,0.0,0.0,83,0.00,,,0.00,0,Wunderground v.1.15,2013-01-10 04:57:00,
2013-01-09 21:02:00,53.3,48.3,30.02,South,182,0.0,4.0,83,0.00,,,0.00,0,Wunderground v.1.15,2013-01-10 05:02:00,
2013-01-09 21:07:00,53.3,48.3,30.02,South,178,2.0,4.0,83,0.00,,,0.00,0,Wunderground v.1.15,2013-01-10 05:07:00,
2013-01-09 21:12:00,53.3,48.3,30.02,South,178,2.0,2.0,83,0.00,,,0.00,0,Wunderground v.1.15,2013-01-10 05:12:00,
2013-01-09 21:17:00,53.3,48.3,30.03,South,177,1.0,2.0,83,0.00,,,0.00,0,Wunderground v.1.15,2013-01-10 05:17:00,
2013-01-09 21:22:00,53.3,48.3,30.03,South,177,1.0,1.0,83,0.00,,,0.00,0,Wunderground v.1.15,2013-01-10 05:22:00,
2013-01-09 21:27:00,53.2,48.2,30.03,South,177,1.0,1.0,83,0.00,,,0.00,0,Wunderground v.1.15,2013-01-10 05:27:00,
2013-01-09 21:32:00,53.2,48.2,30.03,South,177,0.0,0.0,83,0.00,,,0.00,0,Wunderground v.1.15,2013-01-10 05:32:00,
2013-01-09 21:37:00,53.1,48.1,30.03,South,177,0.0,0.0,83,0.00,,,0.00,0,Wunderground v.1.15,2013-01-10 05:37:00,
2013-01-09 21:42:00,53.1,48.1,30.02,South,176,0.0,0.0,83,0.00,,,0.00,0,Wunderground v.1.15,2013-01-10 05:42:00,
2013-01-09 21:52:00,53.0,48.0,30.03,South,177,0.0,0.0,83,0.00,,,0.00,0,Wunderground v.1.15,2013-01-10 05:52:00,
2013-01-09 22:02:00,53.0,48.0,30.03,South,176,0.0,0.0,83,0.00,,,0.00,0,Wunderground v.1.15,2013-01-10 06:02:00,
2013-01-09 22:07:00,53.0,48.0,30.02,South,177,0.0,0.0,83,0.00,,,0.00,0,Wunderground v.1.15,2013-01-10 06:07:00,
2013-01-09 22:17:00,52.9,47.9,30.02,South,177,0.0,0.0,83,0.00,,,0.00,0,Wunderground v.1.15,2013-01-10 06:17:00,
2013-01-09 22:27:00,52.8,47.8,30.02,South,177,0.0,0.0,83,0.00,,,0.00,0,Wunderground v.1.15,2013-01-10 06:27:00,
2013-01-09 22:32:00,52.8,47.8,30.02,South,177,0.0,0.0,83,0.00,,,0.00,0,Wunderground v.1.15,2013-01-10 06:32:00,
2013-01-09 22:42:00,52.8,47.8,30.02,South,177,0.0,0.0,83,0.00,,,0.00,0,Wunderground v.1.15,2013-01-10 06:42:00,
2013-01-09 22:47:00,52.9,47.9,30.02,South,177,0.0,0.0,83,0.00,,,0.00,0,Wunderground v.1.15,2013-01-10 06:47:00,
2013-01-09 22:57:00,53.0,48.0,30.02,South,177,0.0,0.0,83,0.00,,,0.00,0,Wunderground v.1.15,2013-01-10 06:57:00,
2013-01-09 23:07:00,53.1,48.1,30.02,South,176,0.0,0.0,83,0.00,,,0.00,0,Wunderground v.1.15,2013-01-10 07:07:00,
2013-01-09 23:17:00,53.2,48.2,30.02,South,176,0.0,0.0,83,0.00,,,0.00,0,Wunderground v.1.15,2013-01-10 07:17:00,
2013-01-09 23:22:00,53.2,48.2,30.02,South,177,0.0,0.0,83,0.00,,,0.00,0,Wunderground v.1.15,2013-01-10 07:22:00,
2013-01-09 23:32:00,53.2,48.2,30.01,South,177,0.0,0.0,83,0.00,,,0.00,0,Wunderground v.1.15,2013-01-10 07:32:00,
2013-01-09 23:42:00,53.2,48.2,30.01,South,177,0.0,0.0,83,0.00,,,0.00,0,Wunderground v.1.15,2013-01-10 07:42:00,
2013-01-09 23:47:00,53.2,48.2,30.01,South,176,0.0,0.0,83,0.00,,,0.00,0,Wunderground v.1.15,2013-01-10 07:47:00,
2013-01-09 23:57:00,53.2,48.2,30.01,South,177,0.0,0.0,83,0.00,,,0.00,0,Wunderground v.1.15,2013-01-10 07:57:00,